Location: Gertwiller
(48.4110°N, 7.4683°E)
Time: 04:39:11
(UTC+00:00)

Daily predictions for brighter satellites

Satellite Brightness Start Highest point End
(mag) Time Altitude Azimuth Time Altitude Azimuth Time Altitude Azimuth
Cosmos 2344 4.2 02:53:32 47° ESE 02:53:32 47° ESE 03:00:10 10° NE
USA 215 3.6 03:19:46 10° E 03:25:43 57° NE 03:25:43 57° NE
Cosmos 2369 Rocket 4.3 03:33:53 10° SSE 03:38:10 23° ESE 03:42:29 10° NE
NOSS 3-3 (A) 4.3 03:44:27 81° WNW 03:44:55 86° SW 03:53:24 10° SE
NOSS 3-3 (C) 4.3 03:44:32 80° WNW 03:45:02 87° SW 03:53:29 10° SE
COSMO-SKYMED 1 4.3 03:44:25 10° SE 03:48:10 29° ENE 03:48:36 28° NE
MOS 1-B Rocket 4.5 03:45:14 10° SE 03:51:18 56° ENE 03:54:14 28° N
Tsikada Rocket 4.4 03:46:49 10° S 03:52:53 60° E 03:59:04 10° NNE
Gblst 52 Del rocket 4.4 03:54:35 73° SE 03:54:35 73° SE 04:01:08 10° ENE
Cosmos 1943 Rocket 2.2 04:06:38 73° S 04:07:07 80° ESE 04:12:48 10° NNE
CZ-2C R/B 3.3 04:03:58 10° SE 04:09:16 53° ENE 04:13:24 16° N
Cosmos 1241 Rocket 4.2 04:10:32 76° WSW 04:10:35 76° WSW 04:16:45 10° SSE
SL-19 R/B 4.3 04:05:56 10° SSE 04:11:31 79° ENE 04:13:20 44° N
SL-8 R/B 3.8 04:16:23 71° ESE 04:16:23 71° ESE 04:20:40 10° E
CENTAUR R/B 2.4 04:16:08 59° SW 04:17:28 87° NW 04:24:42 10° NE
Cosmos 2297 3.6 04:21:07 64° SW 04:22:02 81° WNW 04:27:48 10° NNE
NOSS 3-2 (A) 3.3 04:27:49 60° WNW 04:28:30 64° NW 04:35:06 10° NE
SL-24 R/B 4.5 04:23:36 10° N 04:27:42 58° N 04:27:42 58° N
Cosmos 2278 Rocket 3.8 04:33:50 19° NNW 04:33:50 19° NNW 04:36:14 10° N
Envisat 3.2 04:30:09 10° NNE 04:35:15 70° ESE 04:40:19 10° S
NOSS 3-2 (C) 3.2 04:33:35 38° SW 04:35:59 88° NW 04:42:34 10° NE
SKYMED 2 3.5 04:31:42 10° SSE 04:36:03 82° ENE 04:37:12 48° N
Cosmos 2098 Rocket 3.4 04:38:17 10° S 04:42:07 65° E 04:47:01 10° NNE
Meteor 2-3 Rocket 3.6 04:37:13 10° SSW 04:42:48 63° WNW 04:48:31 10° N
Landsat 5 3.7 04:41:10 10° SSE 04:45:41 81° ENE 04:48:26 23° N
Cosmos 968 Rocket 3.3 04:42:38 21° SSW 04:46:09 76° WNW 04:51:18 10° NNE
Meteor 2-13 Rocket 4.3 04:41:07 10° S 04:47:15 84° W 04:53:23 10° N
CZ-4B R/B 4.3 04:43:19 10° NNE 04:47:46 73° ESE 04:52:14 10° S
Genesis I 4.2 04:49:24 35° SSW 04:49:24 35° SSW 04:52:20 10° SSE
FALCON 9 DEB 4.3 04:49:58 29° NE 04:49:58 29° NE 04:51:38 10° ENE
Cosmos 921 Rocket 3.0 04:50:35 58° W 04:50:45 58° WSW 04:55:08 10° S
Okean 3 Rocket 4.1 04:49:17 10° S 04:53:46 64° E 04:58:16 10° NNE
DNEPR-1 R/B 3.8 04:53:15 39° NW 04:55:06 90° NE 05:00:41 10° SE
Cosmos 1833 4.3 04:51:16 21° NNW 04:55:12 76° ENE 05:00:56 10° SSE
H-2A R/B 3.6 04:52:32 10° SE 04:56:24 35° ENE 05:00:23 10° N
Meteor 1-26 Rocket 4.5 04:53:50 27° NW 04:56:41 47° W 05:02:11 10° SSW
Cosmos 1812 2.6 04:56:57 63° WNW 04:57:08 64° W 05:00:56 10° S
CBERS 1 LM4 rocket 4.3 04:53:37 10° NNE 04:58:29 89° E 05:03:30 10° SSW
ADEOS 4.2 04:53:35 10° NNE 04:58:46 58° ESE 05:03:54 10° S
Cosmos 2142 Rocket 4.4 04:57:27 10° NNW 05:03:48 78° W 05:10:10 10° S
Cosmos 1151 Rocket 2.9 05:01:35 26° NNW 05:04:00 65° W 05:08:19 10° S
USA 238 DEB 3.6 05:00:11 24° WSW 05:04:11 61° NW 05:11:05 10° NE
USA 238 3.6 05:00:14 24° WSW 05:04:17 62° NW 05:11:11 10° NE
CZ-2C R/B 4.0 05:02:04 10° NNE 05:06:44 46° E 05:11:34 10° S
Cosmos 1766 Rocket 3.4 05:02:36 10° S 05:06:57 86° W 05:11:18 10° N
Cosmos 2344 3.8 05:03:34 28° W 05:07:18 48° NNW 05:15:14 10° NE
Cosmos 2263 4.3 05:02:11 10° SSW 05:07:52 80° ESE 05:13:39 10° NNE
USA 215 3.3 05:02:40 10° SE 05:09:08 64° SW 05:13:03 26° WNW
Kosmos-917 4.2 05:12:29 39° WNW 05:13:02 43° NNW 05:18:19 10° NE
Meteor 1-31 Rocket 2.7 05:09:50 10° N 05:13:41 61° WNW 05:17:32 10° SSW
Cosmos 2279 Rocket 3.9 05:08:23 10° NNW 05:14:33 69° W 05:20:41 10° S
Cosmos 2297 Rocket 4.2 05:11:01 10° N 05:15:15 21° NE 05:19:27 10° E
Cosmos 1328 Rocket 3.4 05:12:41 12° NNW 05:16:41 68° W 05:20:59 10° S
IRAS Rocket 4.2 05:12:18 10° SSE 05:17:49 90° S 05:23:21 10° NNW
BREEZE-M DEB (TANK) 4.5 05:05:39 10° SW 05:17:50 45° SSE 05:21:30 10° E
SJ-12 4.3 05:15:09 10° N 05:19:04 41° WNW 05:22:57 10° SW
Cosmos 2369 Rocket 2.1 05:16:11 10° SW 05:21:43 63° WNW 05:27:18 10° NNE
FALCON 9 DEB 3.2 05:21:07 41° WNW 05:22:00 57° NNW 05:25:21 10° ENE
Cosmos 1862 3.2 05:19:22 10° SSW 05:23:15 57° WNW 05:27:10 10° N
COSMO-SKYMED 1 3.2 05:20:19 10° SSW 05:24:14 33° W 05:25:48 26° WNW
Nadezhda 4 Rocket 4.4 05:20:18 10° S 05:26:23 68° E 05:32:35 10° NNE
H-2A R/B 3.4 05:23:44 10° N 05:27:01 31° WNW 05:30:20 10° SW
H-2A R/B 4.3 05:29:34 10° NE 05:33:37 25° E 05:37:39 10° SSE
Meteor 2-15 Rocket 4.4 05:28:11 10° N 05:34:19 90° W 05:40:23 10° S
Cosmos 2228 Rocket 4.4 05:30:29 10° N 05:34:45 41° ENE 05:39:01 10° SE
CZ-4B R/B 2.6 05:32:54 10° NNE 05:36:30 80° ESE 05:40:04 10° SSW
Lacrosse 4 Rocket 4.1 05:35:55 10° N 05:37:20 11° NNE 05:38:46 10° NE
CZ-4B R/B 2.5 05:36:56 10° SE 05:40:07 43° ENE 05:43:16 10° N
Cosmos 1408 Rocket 3.4 05:38:02 10° SSW 05:42:19 77° W 05:46:40 10° N
Cosmos 783 Rocket 4.5 05:37:47 10° NNW 05:42:58 69° WSW 05:48:07 10° S
CZ-4C R/B 3.9 05:42:35 10° SSW 05:45:12 24° W 05:46:01 21° WNW
Cosmos 1656 Rocket 3.6 05:40:06 10° SW 05:45:24 56° WNW 05:50:48 10° NNE
DMSP B5D2-2 4.1 05:40:26 10° S 05:45:34 59° W 05:50:45 10° NNW
Cosmos 1503 Rocket 4.0 05:40:32 10° SSW 05:45:46 67° WNW 05:51:07 10° NNE
USA 32 4.4 05:41:09 10° N 05:46:24 69° E 05:51:37 10° SSE
Cosmos 1743 Rocket 3.9 05:45:18 10° S 05:49:40 70° E 05:54:01 10° NNE
CZ-2C R/B 3.6 05:45:20 10° SSW 05:49:50 26° W 05:54:19 10° NW
Cosmos 2227 Rocket 4.0 05:46:06 10° N 05:50:46 25° NE 05:55:24 10° E
Cosmos 1943 Rocket 3.3 05:48:15 15° W 05:51:32 23° NW 05:56:01 10° N
FAST Rocket 4.3 05:49:15 10° S 05:51:50 71° E 05:54:54 10° NNE
Cosmos 1515 Rocket 3.8 05:52:44 10° NNW 05:56:56 47° W 06:01:06 10° SSW
Cosmos 1777 Rocket 4.2 05:52:16 10° SSW 05:57:28 77° ESE 06:02:43 10° NNE
PSLV R/B 4.4 05:53:31 10° SSE 05:57:31 63° ENE 06:01:35 10° N
SL-8 R/B 4.3 05:54:22 14° W 05:58:13 46° SSW 06:02:47 10° SE
FALCON 9 DEB 3.7 05:56:51 17° WNW 05:58:32 31° N 06:01:11 10° ENE
Meteor 1-27 Rocket 3.8 05:54:26 10° NNW 06:00:00 64° W 06:05:39 10° S
NOAA 6 4.3 05:56:53 10° NNE 06:02:01 76° ESE 06:07:08 10° S
Cosmos 1602 4.4 05:58:22 10° S 06:02:05 57° E 06:05:51 10° NNE
COSMOS 2487 2.7 06:00:53 10° NNW 06:04:15 64° ENE 06:07:33 10° SSE
Cosmos 773 Rocket 4.2 05:59:30 10° NNW 06:04:34 51° WSW 06:09:33 10° S
FALCON 9 DEB 3.8 06:03:16 15° WNW 06:05:12 30° N 06:07:47 10° ENE
SJ 16-02 1.4 06:02:37 10° SSW 06:07:00 87° ESE 06:11:25 10° NNE
FALCON 9 DEB 3.8 06:05:16 14° WNW 06:07:17 30° N 06:09:53 10° ENE
NOAA 11 4.5 06:02:41 10° N 06:07:53 45° WNW 06:13:04 10° SW
CENTAUR R/B 3.5 06:03:24 10° W 06:09:11 33° NNW 06:15:59 10° NE
Alouette 2 Rocket 3.2 06:06:34 10° NNW 06:10:31 65° W 06:14:01 10° S
NOAA 12 4.1 06:07:56 10° N 06:13:08 60° WNW 06:18:17 10° SSW
Envisat 4.2 06:10:10 10° NNW 06:13:46 20° WNW 06:17:21 10° WSW
Cosmos 1340 Rocket 2.7 06:11:14 10° SSW 06:15:09 65° WNW 06:19:09 10° N
SL-27 R/B 3.3 06:14:32 10° NW 06:17:46 32° WSW 06:20:58 10° SSW
Cosmos 1500 Rocket 3.7 06:14:12 10° SSW 06:18:35 57° WNW 06:23:02 10° N
Cosmos 1939 Rocket 3.0 06:15:55 10° N 06:19:44 47° WNW 06:23:29 10° SW
Cosmos 2219 4.4 06:16:22 10° NNW 06:21:38 38° NE 06:26:53 10° ESE
FALCON 9 DEB 3.8 06:21:38 10° WNW 06:24:16 30° N 06:26:54 10° ENE
NOSS 3-2 (C) 4.4 06:22:31 10° W 06:27:49 31° NNW 06:33:53 10° NE
Cosmos 1707 Rocket 4.0 06:24:20 10° N 06:28:46 70° E 06:33:12 10° SSE
Cosmos 1805 Rocket 3.5 06:25:49 10° SSW 06:30:12 73° W 06:34:36 10° N
Okean O Rocket 3.0 06:25:58 10° NNE 06:30:15 45° E 06:34:28 10° S
CZ-4B R/B 4.1 06:25:53 10° NNE 06:31:05 53° E 06:36:16 10° S
Cosmos 2026 Rocket 4.1 06:26:37 10° S 06:32:59 81° W 06:39:19 10° N
